[[{"header":{"parameterUnit":"m.s-1","parameterCategory":1,"la1":30.2991,"la2":30.254,"lo1":-89.0895,"lo2":-89.0444,"dy":0.0017,"dx":0.0017,"nx":28,"ny":28,"refTime":"2025-12-01T03:00:00:Z","depth":0,"parameterNumber":2,"parameterNumberName":"U-component_of_WINDS"},"data":[0,0,0,0,0,0,0,0,0,0,0,0,0,0,0,0,0,0,0,0,0,0,0,0,0,0,0,0,0,0,0,0,0,0,0,0,0,0,0,0,0,0,0,0,0,0,0,0,0,0,0,0,0,0,0,0,0,0,-0.484,-0.484,0,-0.4879,-0.4879,-0.4879,-0.4853,-0.4852,-0.4851,-0.485,-0.4891,-0.4893,-0.4895,0,0,0,0,0,0,0,0,0,0,0,0,0,-0.4742,-0.4744,-0.4839,-0.484,-0.484,-0.4878,-0.4879,-0.488,-0.4853,-0.4852,-0.4851,-0.4849,-0.489,-0.4893,-0.4895,0,0,0,0,0,0,0,0,0,0,0,0,0,-0.4783,-0.4744,-0.4839,-0.4832,-0.4832,-0.4878,-0.4879,-0.488,-0.4854,-0.4852,-0.485,-0.4848,-0.4889,-0.4893,-0.4896,-0.4952,0,0,-0.4906,-0.4907,0,0,0,0,0,0,0,0,-0.4781,-0.4787,-0.4833,-0.4833,-0.4832,-0.4859,-0.486,-0.4904,-0.4854,-0.4845,-0.485,-0.4848,-0.4882,-0.4886,-0.4897,-0.4954,-0.4956,-0.4906,-0.4908,-0.491,-0.4911,0,0,0,0,0,0,0,-0.4778,-0.4785,-0.4855,-0.4833,-0.4833,-0.4827,-0.483,-0.4868,-0.4873,-0.4846,-0.4844,-0.4849,-0.4881,-0.4894,-0.4898,-0.4957,-0.4906,-0.4909,-0.4911,-0.4912,-0.506,-0.5062,0,0,0,0,0,0,-0.4776,-0.4783,-0.4854,-0.4856,-0.4801,-0.483,-0.4834,-0.4852,-0.4873,-0.4874,-0.4851,-0.4848,-0.4889,-0.4894,-0.4899,-0.4966,-0.491,-0.4913,-0.4915,-0.5058,-0.5061,-0.5063,0,0,0,0,0,0,-0.4774,-0.4782,-0.4852,-0.4819,-0.4827,-0.4833,-0.4854,-0.4854,-0.4866,-0.4876,-0.4877,-0.4862,-0.4888,-0.4894,-0.4939,-0.4967,-0.4914,-0.4917,-0.5056,-0.5059,-0.5062,-0.5101,0,0,0,0,0,0,-0.4771,-0.4782,-0.4804,-0.482,-0.4829,-0.4892,-0.4856,-0.4856,-0.4872,-0.4869,-0.4888,-0.4889,-0.4887,-0.4934,-0.4942,-0.4971,-0.492,-0.5054,-0.5058,-0.5061,-0.5097,-0.5104,-0.5111,0,0,0,0,0,-0.4768,-0.4813,-0.4805,-0.4814,-0.4857,-0.4893,-0.4899,-0.4895,-0.4875,-0.4896,-0.4902,-0.4888,-0.4962,-0.4939,-0.4948,-0.4978,-0.5052,-0.5056,-0.5061,-0.5094,-0.5103,-0.5111,0,0,0,0,0,0,-0.4802,-0.4816,-0.4806,-0.4859,-0.4875,-0.4889,-0.4916,-0.4905,-0.4928,-0.4924,-0.4919,-0.4924,-0.497,-0.4978,-0.4952,-0.5032,-0.5004,-0.501,-0.5026,-0.5035,-0.5042,-0.5039,-0.4923,0,0,0,0,0,-0.4815,-0.4844,-0.4854,-0.4899,-0.4908,-0.4911,-0.4927,-0.4922,-0.4939,-0.4946,-0.4955,-0.4972,-0.4999,-0.5017,-0.5043,-0.5097,-0.5101,-0.5122,-0.5129,-0.5135,-0.5141,-0.5169,-0.5178,-0.5077,-0.5077,-0.5077,0,0,-0.4844,-0.4855,-0.4873,-0.4906,-0.4919,-0.4948,-0.4917,-0.495,-0.4972,-0.4951,-0.4994,-0.5001,-0.5019,-0.5069,-0.5091,-0.5077,-0.5169,-0.514,-0.5145,-0.5148,-0.5174,-0.5184,-0.5193,-0.508,-0.508,-0.5079,0,0,-0.4911,-0.4922,-0.496,-0.4973,-0.4991,-0.4992,-0.5001,-0.5016,-0.502,-0.5062,-0.5047,-0.5072,-0.5119,-0.5133,-0.5146,-0.5215,-0.5203,-0.5223,-0.5261,-0.5288,-0.5296,-0.5303,-0.5328,-0.5337,-0.5229,-0.5229,-0.5229,0,-0.4944,-0.4988,-0.4982,-0.5015,-0.503,-0.5011,-0.505,-0.5062,-0.5088,-0.5099,-0.5082,-0.5139,-0.515,-0.5202,-0.5219,-0.523,-0.524,-0.5222,-0.5296,-0.5303,-0.5309,-0.5332,-0.5342,-0.5231,-0.5231,-0.5231,-0.5231,0,-0.5028,-0.5058,-0.5087,-0.5111,-0.5129,-0.5165,-0.5164,-0.5183,-0.5176,-0.5178,-0.5221,-0.5233,-0.526,-0.5272,-0.5266,-0.5322,-0.5313,-0.5296,-0.5267,-0.5321,-0.5343,-0.5352,-0.5235,-0.5234,-0.5233,-0.5233,0,0,-0.512,-0.5138,-0.5149,-0.5159,-0.5177,-0.52,-0.5235,-0.526,-0.5276,-0.5294,-0.5322,-0.5361,-0.5345,-0.5359,-0.5355,-0.5379,-0.5432,-0.5359,-0.5359,-0.5372,-0.5494,-0.5507,-0.5518,-0.5424,-0.5425,-0.5427,-0.5493,0,-0.5188,-0.5248,-0.5242,-0.5299,-0.5326,-0.5308,-0.5338,-0.5351,-0.5354,-0.5378,-0.5381,-0.5408,-0.5385,-0.5393,-0.5416,-0.5421,-0.5457,-0.5416,-0.545,-0.5451,-0.5447,-0.5529,-0.5543,-0.5605,-0.5501,-0.5503,-0.5504,0,-0.5276,-0.5296,-0.5355,-0.5367,-0.5378,-0.5405,-0.5427,-0.545,-0.5464,-0.5464,-0.548,-0.547,-0.5504,-0.5473,-0.552,-0.5492,-0.5505,-0.5509,-0.5512,-0.5515,-0.5482,-0.5535,-0.5625,-0.5634,-0.5517,-0.5516,-0.5515,0,-0.5337,-0.5378,-0.5419,-0.5428,-0.5443,-0.5462,-0.5469,-0.5482,-0.5497,-0.5516,-0.5525,-0.5548,-0.5561,-0.5579,-0.5575,-0.5553,-0.5622,-0.5592,-0.5623,-0.5624,-0.564,-0.5639,-0.5733,-0.5648,-0.5647,-0.5647,-0.5647,0,-0.5414,-0.5452,-0.5446,-0.5471,-0.5512,-0.5504,-0.5544,-0.5549,-0.556,-0.5585,-0.557,-0.5594,-0.5588,-0.5611,-0.5609,-0.5647,-0.5653,-0.5654,-0.5653,-0.5656,-0.5656,-0.5665,-0.5661,-0.565,-0.5649,-0.5649,-0.5648,0,-0.549,-0.5488,-0.5531,-0.5541,-0.5544,-0.5573,-0.5581,-0.5605,-0.5605,-0.5637,-0.5644,-0.5645,-0.5672,-0.5669,-0.57,-0.5698,-0.5745,-0.5739,-0.574,-0.5739,-0.5771,-0.5768,-0.5875,-0.5888,-0.5794,-0.5795,-0.5795,0,-0.554,-0.5568,-0.558,-0.5595,-0.5603,-0.5629,-0.5643,-0.5636,-0.5652,-0.5669,-0.5691,-0.5715,-0.5735,-0.5779,-0.5782,-0.5805,-0.5799,-0.5835,-0.5802,-0.5804,-0.58,-0.5798,-0.5801,-0.5842,-0.5843,-0.5843,-0.5844,0,-0.5629,-0.5626,-0.5647,-0.5668,-0.5686,-0.5703,-0.5718,-0.5731,-0.5725,-0.5744,-0.577,-0.5785,-0.5815,-0.584,-0.5861,-0.5868,-0.5855,-0.5854,-0.5862,-0.5866,-0.5866,-0.5866,-0.5758,-0.5852,-0.5851,-0.5851,-0.585,-0.585,-0.5693,-0.5716,-0.5728,-0.5752,-0.5762,-0.5776,-0.5798,-0.58,-0.5822,-0.5846,-0.584,-0.5869,-0.5881,-0.5908,-0.5917,-0.594,-0.5927,-0.5939,-0.5942,-0.5946,-0.5949,-0.5861,-0.5943,-0.5943,-0.5943,-0.5943,-0.5943,0,-0.5781,-0.5787,-0.5809,-0.5829,-0.5848,-0.5833,-0.5848,-0.5865,-0.5891,-0.5903,-0.5922,-0.5952,-0.5975,-0.598,-0.6002,-0.6019,-0.6014,-0.6025,-0.6024,-0.6026,-0.596,-0.595,-0.6029,-0.6029,-0.6029,-0.6029,-0.6029,-0.6029,-0.5829,-0.5867,-0.5865,-0.5908,-0.5913,-0.5942,-0.5952,-0.5964,-0.5973,-0.6007,-0.6026,-0.6028,-0.6037,-0.6059,-0.6079,-0.608,-0.6089,-0.6103,-0.6101,-0.6039,-0.6031,-0.6023,-0.6014,-0.6105,-0.6105,-0.6165,-0.6166,-0.6166]},{"header":{"parameterUnit":"m.s-1","parameterCategory":1,"la1":30.2991,"la2":30.254,"lo1":-89.0895,"lo2":-89.0444,"dy":0.0017,"dx":0.0017,"nx":28,"ny":28,"refTime":"2025-12-01T03:00:00:Z","depth":0,"parameterNumber":3,"parameterNumberName":"V-component_of_WINDS"},"data":[0,0,0,0,0,0,0,0,0,0,0,0,0,0,0,0,0,0,0,0,0,0,0,0,0,0,0,0,0,0,0,0,0,0,0,0,0,0,0,0,0,0,0,0,0,0,0,0,0,0,0,0,0,0,0,0,0,0,-6.4298,-6.43,0,-6.4429,-6.4431,-6.4432,-6.4345,-6.4341,-6.4337,-6.4333,-6.4461,-6.4468,-6.4475,0,0,0,0,0,0,0,0,0,0,0,0,0,-6.3964,-6.3971,-6.4298,-6.43,-6.4301,-6.4429,-6.4431,-6.4433,-6.4346,-6.4341,-6.4336,-6.4331,-6.4459,-6.4467,-6.4476,0,0,0,0,0,0,0,0,0,0,0,0,0,-6.4104,-6.3973,-6.4298,-6.4273,-6.4273,-6.4429,-6.4431,-6.4433,-6.4347,-6.4341,-6.4335,-6.4329,-6.4456,-6.4466,-6.4477,-6.4663,0,0,-6.451,-6.4514,0,0,0,0,0,0,0,0,-6.4096,-6.4116,-6.4275,-6.4275,-6.4275,-6.4365,-6.436,-6.451,-6.4348,-6.4318,-6.4333,-6.4326,-6.4433,-6.4446,-6.4483,-6.4669,-6.4674,-6.4511,-6.4517,-6.4522,-6.4525,0,0,0,0,0,0,0,-6.4086,-6.411,-6.435,-6.4278,-6.4277,-6.4253,-6.4267,-6.4388,-6.4408,-6.432,-6.4314,-6.4331,-6.4432,-6.4473,-6.4486,-6.4676,-6.451,-6.452,-6.4526,-6.453,-6.5017,-6.5023,0,0,0,0,0,0,-6.408,-6.4102,-6.4346,-6.4354,-6.4169,-6.4264,-6.4279,-6.4342,-6.4406,-6.441,-6.4336,-6.4327,-6.4458,-6.4473,-6.449,-6.471,-6.4522,-6.4532,-6.4538,-6.5011,-6.5019,-6.5026,0,0,0,0,0,0,-6.4073,-6.4102,-6.434,-6.4227,-6.4255,-6.4276,-6.4348,-6.4348,-6.4388,-6.4418,-6.4421,-6.4375,-6.4454,-6.4475,-6.462,-6.4713,-6.4536,-6.4546,-6.5003,-6.5013,-6.5022,-6.5152,0,0,0,0,0,0,-6.4064,-6.41,-6.4173,-6.4229,-6.4262,-6.4471,-6.4353,-6.4354,-6.4408,-6.4397,-6.4455,-6.4459,-6.4451,-6.4605,-6.4631,-6.4724,-6.4554,-6.4995,-6.5008,-6.5019,-6.514,-6.5165,-6.5187,0,0,0,0,0,-6.4052,-6.4204,-6.4177,-6.4207,-6.4353,-6.4477,-6.4495,-6.4484,-6.4416,-6.4488,-6.4506,-6.4457,-6.4699,-6.462,-6.4649,-6.4747,-6.4989,-6.5004,-6.5018,-6.5129,-6.516,-6.5187,0,0,0,0,0,0,-6.4156,-6.421,-6.4182,-6.4356,-6.4413,-6.4462,-6.4552,-6.4518,-6.4593,-6.4579,-6.456,-6.4574,-6.4726,-6.4751,-6.4663,-6.4929,-6.4833,-6.4854,-6.4907,-6.4937,-6.496,-6.4951,-6.4563,0,0,0,0,0,-6.42,-6.4298,-6.4339,-6.4489,-6.4519,-6.4531,-6.4585,-6.4571,-6.4628,-6.4651,-6.468,-6.4735,-6.4823,-6.4881,-6.4964,-6.5143,-6.5153,-6.5225,-6.5248,-6.5268,-6.5286,-6.538,-6.5411,-6.5074,-6.5074,-6.5074,0,0,-6.429,-6.4332,-6.4395,-6.4511,-6.4553,-6.4653,-6.4552,-6.4662,-6.4735,-6.4667,-6.4806,-6.483,-6.4889,-6.5052,-6.5125,-6.5078,-6.5381,-6.5286,-6.5301,-6.5309,-6.5398,-6.543,-6.5459,-6.5084,-6.5082,-6.508,0,0,-6.4505,-6.4548,-6.4677,-6.4721,-6.4787,-6.4794,-6.4825,-6.488,-6.4893,-6.5033,-6.4984,-6.5069,-6.5221,-6.5266,-6.5308,-6.5539,-6.5496,-6.5567,-6.569,-6.5782,-6.5809,-6.5832,-6.5913,-6.5942,-6.5585,-6.5585,-6.5585,0,-6.4609,-6.476,-6.4747,-6.4861,-6.4912,-6.4857,-6.4986,-6.5029,-6.5117,-6.5153,-6.5099,-6.5289,-6.5325,-6.5496,-6.5553,-6.559,-6.5622,-6.556,-6.5806,-6.583,-6.5851,-6.5928,-6.5959,-6.5593,-6.5592,-6.5591,-6.5591,0,-6.4882,-6.4987,-6.5083,-6.5172,-6.5234,-6.5355,-6.5358,-6.5422,-6.5403,-6.5415,-6.5556,-6.5598,-6.5688,-6.5727,-6.5709,-6.5896,-6.5864,-6.5809,-6.5712,-6.5892,-6.5963,-6.5993,-6.5605,-6.5602,-6.5599,-6.5597,0,0,-6.5167,-6.5248,-6.5283,-6.5322,-6.539,-6.5469,-6.5586,-6.5676,-6.573,-6.5793,-6.5888,-6.6019,-6.5967,-6.6016,-6.6002,-6.6083,-6.6261,-6.6017,-6.6018,-6.606,-6.6467,-6.6507,-6.6542,-6.6233,-6.6239,-6.6243,-6.6461,0,-6.5386,-6.5593,-6.5584,-6.5776,-6.5871,-6.5819,-6.5921,-6.5972,-6.5986,-6.6067,-6.608,-6.6173,-6.6099,-6.6128,-6.6206,-6.6223,-6.6342,-6.6207,-6.632,-6.6324,-6.6306,-6.658,-6.6623,-6.6827,-6.6489,-6.6494,-6.6498,0,-6.5668,-6.5742,-6.5944,-6.5997,-6.6036,-6.6128,-6.6209,-6.6288,-6.6343,-6.6347,-6.6402,-6.6374,-6.6489,-6.639,-6.6547,-6.6455,-6.6501,-6.6516,-6.6523,-6.6533,-6.6421,-6.6595,-6.6892,-6.6922,-6.6542,-6.6538,-6.6535,0,-6.5854,-6.6004,-6.6144,-6.6179,-6.6244,-6.6309,-6.6339,-6.6389,-6.6443,-6.6512,-6.6547,-6.6628,-6.6672,-6.6735,-6.6729,-6.6657,-6.6888,-6.6788,-6.6892,-6.6893,-6.6943,-6.6939,-6.725,-6.6974,-6.6974,-6.6973,-6.6972,0,-6.6098,-6.6224,-6.6228,-6.6314,-6.6452,-6.6439,-6.6575,-6.6598,-6.6643,-6.673,-6.669,-6.6772,-6.676,-6.6842,-6.6837,-6.6967,-6.6988,-6.6992,-6.6989,-6.6996,-6.6995,-6.7024,-6.7009,-6.6981,-6.6979,-6.6978,-6.6976,0,-6.6329,-6.6338,-6.6486,-6.6536,-6.6551,-6.6651,-6.6692,-6.6772,-6.6782,-6.6893,-6.6918,-6.6933,-6.7027,-6.7028,-6.7135,-6.7132,-6.729,-6.7272,-6.7272,-6.7268,-6.7372,-6.7362,-6.7711,-6.7756,-6.7452,-6.7455,-6.7457,0,-6.6484,-6.6579,-6.664,-6.6696,-6.673,-6.6822,-6.6877,-6.6867,-6.6926,-6.6996,-6.7067,-6.7158,-6.723,-6.7382,-6.7401,-6.7482,-6.7464,-6.7581,-6.7476,-6.7479,-6.7464,-6.7459,-6.7467,-6.7602,-6.7605,-6.7608,-6.761,0,-6.6757,-6.6757,-6.6839,-6.6923,-6.699,-6.7054,-6.7114,-6.7162,-6.7159,-6.7226,-6.7323,-6.7379,-6.7488,-6.7578,-6.7656,-6.7683,-6.7646,-6.7643,-6.7671,-6.7678,-6.7674,-6.7676,-6.7327,-6.7635,-6.7632,-6.7631,-6.7629,-6.7628,-6.6954,-6.7036,-6.7091,-6.7183,-6.7227,-6.7284,-6.7361,-6.7381,-6.7463,-6.7553,-6.7541,-6.7649,-6.7699,-6.7801,-6.7835,-6.7917,-6.7876,-6.7917,-6.7927,-6.7937,-6.7948,-6.7662,-6.7931,-6.793,-6.793,-6.7929,-6.7929,0,-6.7224,-6.7257,-6.7342,-6.7428,-6.75,-6.746,-6.7524,-6.7586,-6.7681,-6.7733,-6.7805,-6.7915,-6.8001,-6.8027,-6.811,-6.8171,-6.8155,-6.8193,-6.8187,-6.8194,-6.7981,-6.7948,-6.8203,-6.8203,-6.8203,-6.8203,-6.8203,-6.8203,-6.7373,-6.7509,-6.7515,-6.7671,-6.7702,-6.7809,-6.7848,-6.7899,-6.794,-6.8066,-6.8138,-6.8155,-6.8196,-6.8281,-6.8357,-6.8362,-6.8394,-6.8438,-6.8436,-6.8237,-6.8209,-6.8183,-6.8151,-6.8446,-6.8446,-6.8642,-6.8644,-6.8646]}]]